TimeEDT,TemperatureF,Dew PointF,Humidity,Sea Level PressureIn,VisibilityMPH,Wind Direction,Wind SpeedMPH,Gust SpeedMPH,PrecipitationIn,Events,Conditions,WindDirDegrees,DateUTC
12:15 AM,45.5,41.2,85,30.26,10.0,SW,3.5,-,N/A,,Clear,230,2013-05-26 04:15:00
12:35 AM,44.8,40.5,85,30.27,10.0,Calm,Calm,-,N/A,,Clear,0,2013-05-26 04:35:00
12:55 AM,45.3,41.4,86,30.26,10.0,Calm,Calm,-,N/A,,Clear,0,2013-05-26 04:55:00
1:15 AM,45.0,41.4,87,30.26,10.0,Calm,Calm,-,N/A,,Scattered Clouds,0,2013-05-26 05:15:00
1:35 AM,44.6,41.0,87,30.26,10.0,Calm,Calm,-,N/A,,Scattered Clouds,0,2013-05-26 05:35:00
1:55 AM,44.6,41.0,87,30.25,10.0,Calm,Calm,-,N/A,,Scattered Clouds,0,2013-05-26 05:55:00
2:15 AM,45.7,42.4,88,30.25,10.0,Calm,Calm,-,N/A,,Overcast,0,2013-05-26 06:15:00
2:35 AM,45.7,42.1,87,30.25,10.0,Calm,Calm,-,N/A,,Mostly Cloudy,0,2013-05-26 06:35:00
2:55 AM,45.5,42.1,88,30.25,10.0,Calm,Calm,-,N/A,,Scattered Clouds,0,2013-05-26 06:55:00
3:15 AM,44.6,41.2,88,30.25,10.0,Calm,Calm,-,N/A,,Scattered Clouds,0,2013-05-26 07:15:00
3:35 AM,44.4,41.4,89,30.25,10.0,Calm,Calm,-,N/A,,Clear,0,2013-05-26 07:35:00
3:55 AM,43.9,41.4,91,30.25,10.0,Calm,Calm,-,N/A,,Clear,0,2013-05-26 07:55:00
4:15 AM,43.7,41.2,91,30.25,10.0,Calm,Calm,-,N/A,,Clear,0,2013-05-26 08:15:00
4:35 AM,43.5,41.2,91,30.25,10.0,Calm,Calm,-,N/A,,Mostly Cloudy,0,2013-05-26 08:35:00
4:55 AM,43.7,41.0,90,30.26,10.0,Calm,Calm,-,N/A,,Mostly Cloudy,0,2013-05-26 08:55:00
5:15 AM,43.2,40.6,91,30.26,10.0,Calm,Calm,-,N/A,,Scattered Clouds,0,2013-05-26 09:15:00
5:35 AM,43.7,41.9,93,30.26,10.0,Calm,Calm,-,N/A,,Overcast,0,2013-05-26 09:35:00
5:55 AM,44.2,42.3,93,30.27,10.0,Calm,Calm,-,N/A,,Overcast,0,2013-05-26 09:55:00
6:15 AM,44.6,42.8,93,30.29,10.0,Calm,Calm,-,N/A,,Scattered Clouds,0,2013-05-26 10:15:00
6:35 AM,45.0,42.6,91,30.30,10.0,Calm,Calm,-,N/A,,Clear,0,2013-05-26 10:35:00
6:55 AM,45.5,43.0,91,30.32,10.0,Calm,Calm,-,N/A,,Mostly Cloudy,0,2013-05-26 10:55:00
7:15 AM,45.7,42.8,90,30.32,10.0,Calm,Calm,-,N/A,,Mostly Cloudy,0,2013-05-26 11:15:00
7:35 AM,46.0,43.2,90,30.32,10.0,Calm,Calm,-,N/A,,Overcast,0,2013-05-26 11:35:00
7:55 AM,46.8,43.5,88,30.32,10.0,Calm,Calm,-,N/A,,Overcast,0,2013-05-26 11:55:00
8:15 AM,47.3,44.1,88,30.31,10.0,Calm,Calm,-,N/A,,Overcast,0,2013-05-26 12:15:00
8:35 AM,48.2,43.2,83,30.31,10.0,Calm,Calm,-,N/A,,Overcast,0,2013-05-26 12:35:00
8:55 AM,48.6,42.8,80,30.32,10.0,Calm,Calm,-,N/A,Rain,Light Rain,0,2013-05-26 12:55:00
9:15 AM,49.1,43.5,81,30.33,10.0,Calm,Calm,-,N/A,Rain,Light Rain,0,2013-05-26 13:15:00
9:35 AM,49.5,44.4,83,30.33,10.0,West,4.6,-,N/A,,Overcast,260,2013-05-26 13:35:00
9:55 AM,50.4,43.7,78,30.33,10.0,Calm,Calm,-,N/A,,Light Drizzle,0,2013-05-26 13:55:00
10:15 AM,51.3,44.8,78,30.32,10.0,Calm,Calm,-,N/A,,Overcast,0,2013-05-26 14:15:00
10:35 AM,53.4,44.2,71,30.33,10.0,Calm,Calm,-,N/A,,Overcast,0,2013-05-26 14:35:00
10:55 AM,53.6,45.9,75,30.33,10.0,Calm,Calm,-,N/A,Rain,Light Rain,0,2013-05-26 14:55:00
11:15 AM,53.6,45.7,75,30.34,7.0,Calm,Calm,-,N/A,Rain,Light Rain,0,2013-05-26 15:15:00
11:35 AM,54.0,45.9,74,30.34,10.0,Calm,Calm,-,N/A,,Overcast,0,2013-05-26 15:35:00
11:55 AM,54.7,47.5,77,30.34,10.0,Calm,Calm,-,N/A,,Overcast,0,2013-05-26 15:55:00
12:15 PM,56.3,47.3,72,30.34,10.0,Calm,Calm,-,N/A,,Overcast,0,2013-05-26 16:15:00
12:35 PM,58.5,46.2,64,30.33,10.0,Calm,Calm,-,N/A,,Mostly Cloudy,0,2013-05-26 16:35:00
12:55 PM,60.8,47.8,62,30.32,10.0,Calm,Calm,-,N/A,,Mostly Cloudy,0,2013-05-26 16:55:00
1:15 PM,63.1,47.7,57,30.31,10.0,Calm,Calm,-,N/A,,Scattered Clouds,0,2013-05-26 17:15:00
1:35 PM,63.9,47.3,55,30.30,10.0,Calm,Calm,-,N/A,,Scattered Clouds,0,2013-05-26 17:35:00
1:55 PM,65.7,46.0,49,30.29,10.0,Calm,Calm,-,N/A,,Mostly Cloudy,0,2013-05-26 17:55:00
2:15 PM,68.7,48.4,48,30.27,10.0,Calm,Calm,-,N/A,,Mostly Cloudy,0,2013-05-26 18:15:00
2:35 PM,70.0,40.1,34,30.26,10.0,NW,4.6,-,N/A,,Scattered Clouds,320,2013-05-26 18:35:00
2:55 PM,70.7,41.7,35,30.26,10.0,Calm,Calm,-,N/A,,Clear,0,2013-05-26 18:55:00
3:15 PM,71.6,42.6,35,30.25,10.0,NNW,4.6,-,N/A,,Scattered Clouds,340,2013-05-26 19:15:00
3:35 PM,72.0,42.4,34,30.24,10.0,Calm,Calm,-,N/A,,Clear,0,2013-05-26 19:35:00
3:55 PM,73.0,42.4,33,30.24,10.0,NNW,5.8,-,N/A,,Clear,330,2013-05-26 19:55:00
4:15 PM,73.4,43.9,35,30.23,10.0,Calm,Calm,-,N/A,,Scattered Clouds,0,2013-05-26 20:15:00
4:35 PM,73.6,39.9,30,30.22,10.0,North,6.9,-,N/A,,Clear,360,2013-05-26 20:35:00
4:55 PM,74.3,40.8,30,30.22,10.0,NNW,6.9,-,N/A,,Clear,330,2013-05-26 20:55:00
5:15 PM,74.1,36.7,26,30.22,10.0,North,5.8,-,N/A,,Clear,350,2013-05-26 21:15:00
5:35 PM,74.3,37.8,27,30.21,10.0,North,9.2,-,N/A,,Clear,360,2013-05-26 21:35:00
5:55 PM,74.3,37.4,26,30.21,10.0,NNW,6.9,-,N/A,,Clear,340,2013-05-26 21:55:00
6:15 PM,73.9,36.9,26,30.21,10.0,NNE,5.8,-,N/A,,Clear,30,2013-05-26 22:15:00
6:35 PM,73.6,37.8,27,30.21,10.0,North,4.6,-,N/A,,Clear,10,2013-05-26 22:35:00
6:55 PM,73.4,37.4,27,30.21,10.0,North,4.6,-,N/A,,Clear,360,2013-05-26 22:55:00
7:15 PM,72.5,37.2,28,30.21,10.0,NNW,3.5,-,N/A,,Clear,330,2013-05-26 23:15:00
7:35 PM,71.6,40.6,33,30.21,10.0,Calm,Calm,-,N/A,,Clear,0,2013-05-26 23:35:00
7:55 PM,67.5,47.3,48,30.21,10.0,West,3.5,-,N/A,,Clear,260,2013-05-26 23:55:00
8:15 PM,63.5,48.4,58,30.21,10.0,Calm,Calm,-,N/A,,Clear,0,2013-05-27 00:15:00
8:35 PM,60.6,47.5,62,30.22,10.0,WSW,4.6,-,N/A,,Clear,240,2013-05-27 00:35:00
8:55 PM,59.2,47.3,65,30.22,10.0,WSW,3.5,-,N/A,,Clear,240,2013-05-27 00:55:00
9:15 PM,57.6,47.1,68,30.22,10.0,Calm,Calm,-,N/A,,Clear,0,2013-05-27 01:15:00
9:35 PM,55.6,48.2,76,30.23,10.0,Calm,Calm,-,N/A,,Clear,0,2013-05-27 01:35:00
9:55 PM,54.0,47.8,80,30.24,10.0,Calm,Calm,-,N/A,,Clear,0,2013-05-27 01:55:00
10:15 PM,54.0,48.2,81,30.25,10.0,Calm,Calm,-,N/A,,Clear,0,2013-05-27 02:15:00
10:35 PM,51.3,46.6,84,30.26,10.0,Calm,Calm,-,N/A,,Clear,0,2013-05-27 02:35:00
10:55 PM,52.0,46.6,82,30.26,10.0,Calm,Calm,-,N/A,,Clear,0,2013-05-27 02:55:00
11:15 PM,51.6,46.4,82,30.26,10.0,Calm,Calm,-,N/A,,Clear,0,2013-05-27 03:15:00
11:35 PM,49.6,46.2,88,30.26,10.0,Calm,Calm,-,N/A,,Clear,0,2013-05-27 03:35:00
11:55 PM,50.0,46.9,89,30.27,10.0,Calm,Calm,-,N/A,,Clear,0,2013-05-27 03:55:00